Tracking 23752 objects as of 23-Oct-2021
HD Live streaming from Space Station
objects crossing your sky now

FREGAT DEB

Track FREGAT DEB now!
10-day predictions


NORAD ID: 46018
Int'l Code: 2011-037HV
Perigee: 479.2 km
Apogee: 3,468.5 km
Inclination: 51.4 °
Period: 126.4 minutes
Semi major axis: 8344 km
RCS: Unknown
Launch date: July 18, 2011
Source: Commonwealth of Independent States (former USSR) (CIS)
Launch site: TYURATAM MISSILE AND SPACE COMPLEX (TTMTR)

Note: This is SATELLITE DEBRIS
aabbcc
Your satellite tracking list
Your tracking list is empty




NASA's NSSDC Master Catalog

Two Line Element Set (TLE):
1 46018U 11037HV  21292.40656062  .00010632  00000-0  33742-2 0  9999
2 46018  51.4453 181.7189 1791138 293.4941  48.7963 11.38873470 50644
Source of the keplerian elements: AFSPC